Regional Weather Roundup
Issued by NWS Lake Charles, LA

Home | Current Version | Previous Version | Text Only | Print | Product List | Glossary On
Versions: 1 2 3 4 5 6 7 8 9 10 11 12 13 14 15 16 17 18 19 20 21 22 23 24 25 26 27 28 29 30 31 32 33 34 35 36 37 38 39 40 41 42 43 44 45 46 47 48
000
ASUS44 KLCH 202210
RWRLCH
RWRLCH
REGIONAL WEATHER ROUNDUP
NATIONAL WEATHER SERVICE LAKE CHARLES LA
500 PM CDT WED AUG 20 2014

Note: "fair" indicates few or no clouds below 12,000 feet with no
significant weather and/or obstructions to visibility.


ACROSS SOUTHEAST TEXAS

CITY           SKY/WX    TMP DP  RH WIND       PRES   REMARKS
BEAUMONT       MOSUNNY   90  77  65 S14       29.98R HX 103
BEAUMONT CITY    N/A     90  75  61 S8        29.99S HX 100
ORANGE         MOCLDY    89  75  63 S13       30.01S
JASPER         NOT AVBL
$$

ACROSS CENTRAL LOUISIANA

CITY           SKY/WX    TMP DP  RH WIND       PRES   REMARKS
LEESVILLE      TSTM      73  72  94 SW10      30.06S VSB 3/4
FULLERTON      MOCLDY    82  71  69 VRB3      30.02R THUNDER
ALEXANDRIA INT MOSUNNY   89  73  59 S13       30.00R
ESLER FIELD    MOSUNNY   91  74  57 S8        30.03R HX 100
DERIDDER       MOCLDY    78  73  85 CALM      30.06R
OAKDALE        CLOUDY    75  73  93 CALM      30.06R
OPELOUSAS      TSTM     N/A N/A N/A SW3       30.06R
$$

ACROSS SOUTHWEST AND SOUTH CENTRAL LOUISIANA

CITY           SKY/WX    TMP DP  RH WIND       PRES   REMARKS
SULPHUR        CLOUDY    82  78  89 CALM      30.03R
LAKE CHARLES   CLOUDY    84  77  79 CALM      30.02R
CHENNAULT INT  PTSUNNY   84  75  74 CALM      30.03R
CAMERON PHI    CLEAR     86  77  74 S10       30.02R
DEQUINCY         N/A     77  73  87 CALM      30.03R
JENNINGS       CLOUDY    80  77  91 SE3       30.04R
LAFAYETTE      CLOUDY    77  73  87 NE6       30.04R
NEW IBERIA     CLOUDY    83  72  69 CALM      30.05R
ABBEVILLE        N/A     76  75  95 CALM      30.04R
PATTERSON      PTSUNNY  N/A N/A N/A MISG        N/A
SALT POINT       N/A     91  78  65 VRB3      30.04S HX 106
$$

SELECTED SITES ACROSS THE REGION

CITY           SKY/WX    TMP DP  RH WIND       PRES   REMARKS
HOUSTON BUSH   CLOUDY    79  71  76 E7        29.96F
HOUSTON HOBBY  PTSUNNY   88  77  69 S7        29.95F HX 100
GALVESTON      PTSUNNY   88  75  65 SE13      29.99S
COLLEGE STAT   TSTM      81  74  79 SW12      29.95R
CONROE         CLOUDY    76  72  87 E3        29.97F
HUNTSVILLE     PTSUNNY   78  72  81 VRB3      29.96F
LUFKIN         PTSUNNY   83  73  72 S6        30.00R
SHREVEPORT     MOSUNNY   95  69  42 S9        29.96F HX 100
MONROE         SUNNY     92  69  47 S7        30.01S
NATCHEZ MS     PTSUNNY   90  73  58 E8        30.04R
BATON ROUGE    CLOUDY    80  73  79 CALM      30.06R
N.O. INTL ARPT CLOUDY    84  73  69 S7        30.05S
SLIDELL        PTSUNNY   91  71  51 S10       30.03S
$$

MARINE REPORTS

STATION/POSITION TIME  TEMP    WIND        PRES    VSBY  WAVE
                       AIR SEA DIR/SP/G                  HT/PER
                 (UTC) (F)     (DEG/KT/KT) (MB)    (MI)  (FT/S)
BUOY 30 S HIGH I NOT AVBL
SEA RIM ST PARK  2200   87     180/ 11/ 13 1016.2R
PORT ARTHUR      2200      88  200/  9/ 12 1015.8F
SABINE PASS N    2200   88 87  190/ 13/ 16 1016.0R
TEXAS POINT      2200   87 87  170/ 12/ 14 1016.1R
CALCASIEU PASS   2200   86 87  190/  9/ 13 1017.6R
LK CHARLES BEACH 2200   84 86              1017.1R
MARSH ISLAND     2100   87     160/  9/ 11   N/A
FRESH WATER LOCK 2200   86 87  120/ 11/ 13 1016.9R
AMERADA PASS     2200   88 92  200/  1/  8 1017.2R
$$


USA.gov is the U.S. government's official web portal to all federal, state and local government web resources and services.